STARLINK-30198, 57290

Orbit data source: Space-Track

STARLINK-30198, 57290 is a payload satellite owned by SpaceX/Seattle (US) in LEO that was launched on Mon, 10 Jul 2023 UTC via an FALCON 9 launch vehicle from the Air Force Eastern Test Range (AFETR). Payload-class satellites include a variety of spacecraft equipped with specific instruments for various scientific and technological missions. These include communications satellites like Starlink; space stations such as the ISS; scientific satellites like the Hubble; Earth observation satellites from companies like Planet Labs, Umbra, and HawkEye 360; GPS; miniature CubeSats for education and research; and military/defense satellites.

Loading next visibility...
Identifier
57290, 2023-096A
Orbit
LEO
Country
Flag of USUS
Related business
Manufacturer
SpaceX/Seattle
Mission
Operational Commercial Communications
Bus & Motor
STARLINK V2M, Unknown motor
Mass
730 kg wet, ~700 kg dry
Launch date (UTC)
2023-07-10 (3 years ago)
Launch vehicle
FALCON 9
Launch site
Air Force Eastern Test Range (AFETR)
Object type
Payload
Rocket body
Debris
Shape & HBR
Box + 2 Pan, 17.7 m
Radar Cross Section
33.884 m², Large (>1 m²)

Expand to show TLE details & history
Last TLE update: 5 hours ago

TLE from 5 hours ago
0 STARLINK-30198
1 57290U 23096A   26236.62834554  .00028764  00000-0  96299-3 0  9994
2 57290  42.9847 358.6626 0013294 326.9377  33.0643 15.30342888173250
Epoch: 2026-08-24T15:04Z
TLE epoch observation values (Epoch: 2026-08-24T15:04:49.054Z)
Latitude
-0.00005°
Longitude
159.55083°
Altitude
466.932 km
Speed
7.639 km/s
True Right ascension
23h 54m 39s
True Declination
0° 00' 00"
Sunlit
Object was in full shadow at epoch
Visualization orbit readout
Latitude
Unknown
Longitude
Unknown
Altitude
Unknown
Speed
Unknown
Apparent Right ascension
Unknown
Apparent Declination
Unknown
Sunlit
N/A
Visualization observer readout
Local Sidereal Time
11:42:19
Azimuth
Unknown
Elevation
Unknown
Doppler factor
Unknown
Orbital elements
Apogee altitude
485.851 km
Perigee altitude
467.626 km
Semi-major axis
6,854.876 km
Eccentricity
0.00133
Inclination
42.9847°
RAAN
358.6626°
Arg. of periapsis
326.9377°
True anomaly
33.14753°
Mean anomaly
33.0643°
Eccentric anomaly
33.1059°
Mean motion
3.82423 °/min
Orbital period
94.14 mins
BSTAR
0.00096299
Loading maneuver chart data...
Computing Atmospheric mass density...

Documentation

Showing up to 5 results
|